Regional Weather Roundup
Issued by NWS

Home | Current Version | Previous Version | Text Only | Print | Product List | Glossary On
Versions: 1 2 3 4 5 6 7 8 9 10 11 12 13 14 15 16 17 18 19 20 21 22 23 24 25 26 27 28 29 30 31 32 33 34 35 36 37 38 39 40 41 42 43 44 45 46 47 48 49 50
780
ASUS44 KJAN 270503
RWRMS

MISSISSIPPI HOURLY WEATHER ROUNDUP
NATIONAL WEATHER SERVICE JACKSON MS
1200 AM CDT WED AUG 27 2014

NOTE: "FAIR: INDICATES FEW OR NO CLOUDS BELOW 12,000 FEET WITH NO
SIGNIFICANT WEATHER AND/OR OBSTRUCTIONS TO VISIBILITY.

MSZ001>002-007>008-010>013-018>021-025>028-034>036-270600-
NORTHWEST MISSISSIPPI

CITY           SKY/WX    TMP DP  RH WIND       PRES   REMARKS
CLARKSDALE     FAIR      75  73  94 CALM      30.05S
CLEVELAND      FAIR      75  70  84 E5        30.03S
GREENWOOD      CLEAR     71  67  87 N3        30.04R
GREENVILLE     CLEAR     74  67  78 E3        30.03S
GRENADA        FAIR      72  66  83 CALM      30.05S
OLIVE BRANCH   CLEAR     75  75 100 CALM      30.06S
OXFORD         FAIR      72  66  83 CALM      30.08S
TUNICA         CLEAR     73  70  88 CALM      30.06R
$$

MSZ003>006-009-014>017-022>024-029>033-037>039-270600-
NORTHEAST MISSISSIPPI

CITY           SKY/WX    TMP DP  RH WIND       PRES   REMARKS
BELMONT        FAIR      68  67  96 CALM      30.08S
COLUMBUS AFB   CLEAR     71  67  85 CALM      30.05S
CORINTH        FAIR      72  70  94 CALM      30.07S FOG
GOLDN TRIANGLE CLEAR     72  64  78 N3        30.04F
STARKVILLE     FAIR      72  64  78 CALM      30.04F
TUPELO         CLEAR     72  66  81 NE5       30.06R
$$

MSZ040-058-270600-
CENTRAL MISSISSIPPI

CITY           SKY/WX    TMP DP  RH WIND       PRES   REMARKS
JACKSON INTL   CLEAR     71  66  84 CALM      30.02S
JACKSON HAWKNS CLEAR     74  66  76 CALM      30.02F
MERIDIAN KEY   CLEAR     69  64  84 CALM      30.03S
MERIDIAN NAS   CLEAR     69  64  84 CALM      30.03S
RAYMOND        FAIR      68  64  88 CALM      30.02F
VICKSBURG      PTCLDY    69  66  90 NW3       30.01S
$$

MSZ059>079-270600-
SOUTH MISSISSIPPI

CITY           SKY/WX    TMP DP  RH WIND       PRES   REMARKS
BROOKHAVEN     FAIR      70  66  88 CALM      30.04S
COLUMBIA       FAIR      72  68  88 MISG      30.00S
HATTIESBURG    CLEAR     75  68  78 CALM      30.01S
MCCOMB         PTCLDY    75  66  73 CALM      30.02R
NATCHEZ        CLEAR     72  66  83 CALM      30.02S
PINE BELT      CLEAR     73  64  73 NE3       30.03S
$$

MSZ080>082-270600-
COASTAL MISSISSIPPI

CITY           SKY/WX    TMP DP  RH WIND       PRES   REMARKS
BILOXI         PTCLDY    78  73  84 NE3       29.98S
PASCAGOULA     PTCLDY    75  72  90 CALM      29.98F
GULFPORT       PTCLDY    79  74  84 CALM      29.98S
$$



USA.gov is the U.S. government's official web portal to all federal, state and local government web resources and services.